Flag for U.S.A. Weather past 2 weeks in Pierre, South Dakota, U.S.A.

Now
64 °F

Clear.


Feels Like: 64 °F
Forecast: 62 / 87 °F
Wind: 8 mph from East

Location: Pierre Regional Airport

Current Time: Aug 2, 2014 at 2:24:43 AM

Latest Report: Aug 2, 2014 at 1:53 AM


Visibility: 10 mi

Pressure: 30.01 "Hg

Humidity: 90%

Dew point: 61 °F

Location of PierreLocation

Historic Weather in Pierre — Graph

°F

Pierre temperature yesterday

Maximum temperature yesterday: 92 °F (at 3:53 PM)
Minimum temperature yesterday: 60 °F (at 6:53 AM)
Average temperature yesterday: 76 °F

Past Weeks' High & Low Weather Summary

 TemperatureHumidityPressure
High103 °F (Jul 21, 3:53 PM)100% (Jul 21, 4:53 AM)30.31 "Hg (Jul 21, 4:53 AM)
Low51 °F (Jul 29, 4:53 AM)23% (Jul 25, 3:53 PM)29.53 "Hg (Jul 24, 8:53 PM)
Average75 °F62%29.93 "Hg
* Reported Jul 18 12:53 AM — Aug 2 12:53 AM, Pierre, Weather by CustomWeather, © 2014

Note: Actual official high and low records may vary slightly from our data, if they occured in-between our weather recording intervals... More about our weather records

Advertising

Pierre weather history for previous 24 hours

 ConditionsComfort  
Time TempWeatherWind HumidityBarometerVisibility
12:53 AM
Aug 2
67 °FClear.9 mph79%29.98 "Hg10 mi
11:53 PM
Aug 1
70 °FClear.7 mph68%29.99 "Hg10 mi
10:53 PM73 °FClear.9 mph57%29.95 "Hg10 mi
9:53 PM69 °FLight rain. Partly sunny.29 mph73%29.90 "Hg10 mi
8:53 PM72 °FThundershowers. Cloudy.5 mph61%30.01 "Hg10 mi
8:03 PM83 °FThundershowers. Partly sunny.22 mph41%30.01 "Hg10 mi
7:53 PM84 °FSunny.17 mph38%29.94 "Hg10 mi
6:53 PM89 °FSunny.21 mph32%29.92 "Hg10 mi
5:53 PM90 °FSunny.20 mph32%29.93 "Hg10 mi
4:53 PM91 °FSunny.17 mph31%29.94 "Hg10 mi
3:53 PM92 °FSunny.16 mph32%29.95 "Hg10 mi
2:53 PM91 °FSunny.16 mph32%29.97 "Hg10 mi
1:53 PM90 °FSunny.17 mph34%29.98 "Hg10 mi
12:53 PM88 °FSunny.13 mph38%30.00 "Hg10 mi
11:53 AM86 °FSunny.14 mph40%30.01 "Hg10 mi
10:53 AM83 °FSunny.14 mph44%30.01 "Hg10 mi
9:53 AM77 °FSunny.13 mph62%30.02 "Hg10 mi
8:53 AM69 °FSunny.9 mph79%30.03 "Hg10 mi
7:53 AM65 °FSunny.5 mph87%30.02 "Hg10 mi
6:53 AM60 °FClear.5 mph93%30.01 "Hg10 mi
5:53 AM61 °FPassing clouds.6 mph93%30.01 "Hg10 mi
4:53 AM63 °FPassing clouds.6 mph87%30.00 "Hg10 mi
3:53 AM65 °FClear.7 mph78%30.00 "Hg10 mi
2:53 AM63 °FClear.6 mph81%30.00 "Hg10 mi
Weather by CustomWeather, © 2014

See weather overviewHow to use our weather pages